2022/02/22 23:28:24+0000,-42.90,-31.29,-31.01,-34.31,-47.65,-42.39
2022/02/22 23:29:16+0000,-42.92,-29.64,-30.33,-45.14,-37.73,-42.78
2022/02/22 23:30:09+0000,-43.06,-30.08,-32.21,-31.65,-48.46,-42.68
2022/02/22 23:31:09+0000,-43.19,-30.61,-30.41,-34.74,-48.23,-43.11
2022/02/22 23:32:01+0000,-43.02,-28.84,-32.54,-33.01,-40.43,-43.26
2022/02/22 23:32:54+0000,-43.05,-30.36,-33.07,-34.14,-47.11,-43.18
2022/02/22 23:33:46+0000,-42.50,-29.74,-32.18,-30.45,-34.64,-42.21
2022/02/22 23:34:38+0000,-43.30,-31.97,-30.81,-26.88,-39.20,-42.15
2022/02/22 23:35:30+0000,-43.79,-30.56,-33.76,-36.08,-37.42,-41.39
2022/02/22 23:36:22+0000,-43.57,-31.50,-33.59,-37.10,-36.65,-42.76
2022/02/22 23:37:14+0000,-44.20,-28.28,-32.16,-34.35,-31.83,-42.92
2022/02/22 23:38:06+0000,-43.82,-31.64,-32.16,-32.06,-34.45,-42.83
2022/02/22 23:38:58+0000,-44.14,-29.19,-33.56,-35.63,-35.58,-42.97
2022/02/22 23:39:51+0000,-42.42,-30.77,-31.36,-37.59,-33.67,-42.87
2022/02/22 23:40:43+0000,-43.41,-28.47,-32.37,-38.46,-36.26,-42.40
2022/02/22 23:41:43+0000,-42.70,-29.53,-33.87,-38.74,-34.13,-42.79
2022/02/22 23:42:35+0000,-43.77,-29.56,-31.65,-34.69,-36.05,-43.73
2022/02/22 23:43:27+0000,-43.64,-26.69,-32.28,-32.75,-37.30,-44.62
2022/02/22 23:44:19+0000,-43.19,-27.74,-31.75,-43.39,-30.87,-43.13
2022/02/22 23:45:11+0000,-42.75,-29.11,-33.53,-36.05,-34.28,-43.83
2022/02/22 23:46:03+0000,-43.40,-24.52,-32.92,-46.04,-35.18,-42.74
2022/02/22 23:46:55+0000,-42.30,-26.78,-32.78,-37.64,-47.98,-42.19
2022/02/22 23:47:47+0000,-42.76,-29.60,-31.43,-45.31,-40.12,-43.21
2022/02/22 23:48:39+0000,-42.39,-30.18,-32.34,-36.20,-48.23,-42.83
2022/02/22 23:49:31+0000,-43.52,-29.89,-32.88,-45.76,-35.70,-41.66
2022/02/22 23:50:25+0000,-43.43,-30.46,-30.82,-36.62,-48.73,-43.50
2022/02/22 23:51:25+0000,-43.93,-30.47,-31.55,-40.28,-47.25,-43.31
2022/02/22 23:52:17+0000,-42.94,-29.94,-32.06,-45.26,-42.79,-42.84
2022/02/22 23:53:09+0000,-43.31,-28.77,-32.74,-34.64,-48.28,-40.13
2022/02/22 23:54:01+0000,-43.68,-30.39,-31.71,-36.62,-28.75,-42.57
2022/02/22 23:54:53+0000,-42.99,-24.65,-31.53,-37.01,-42.68,-43.32
2022/02/22 23:55:45+0000,-43.11,-30.35,-33.49,-36.99,-40.96,-42.48
2022/02/22 23:56:37+0000,-43.17,-30.48,-33.66,-35.53,-26.10,-42.72
2022/02/22 23:57:29+0000,-42.30,-31.25,-32.49,-36.44,-30.20,-43.22
2022/02/22 23:58:21+0000,-43.55,-30.95,-32.96,-39.31,-41.34,-43.08
2022/02/22 23:59:13+0000,-42.86,-31.30,-33.48,-32.90,-39.74,-42.92
2022/02/23 00:00:07+0000,-42.50,-30.91,-32.10,-37.44,-47.58,-43.12
2022/02/23 00:01:11+0000,-42.47,-31.43,-33.07,-41.06,-37.82,-43.14
2022/02/23 00:02:03+0000,-42.44,-30.40,-32.30,-46.24,-40.45,-42.89
2022/02/23 00:02:55+0000,-43.38,-31.03,-31.09,-34.09,-47.72,-42.84
2022/02/23 00:03:47+0000,-43.63,-30.79,-32.15,-45.06,-38.14,-44.12
2022/02/23 00:04:39+0000,-42.78,-30.17,-33.44,-33.24,-48.87,-42.14
2022/02/23 00:05:31+0000,-43.43,-29.82,-32.60,-33.82,-38.13,-42.96
2022/02/23 00:06:24+0000,-42.68,-29.17,-32.99,-34.38,-47.54,-42.57
2022/02/23 00:07:16+0000,-43.95,-30.57,-31.44,-37.76,-38.46,-42.91
2022/02/23 00:08:08+0000,-43.08,-30.31,-33.02,-31.73,-38.80,-41.40
2022/02/23 00:09:00+0000,-43.10,-30.36,-32.00,-38.10,-38.25,-42.72
2022/02/23 00:09:53+0000,-44.06,-29.82,-30.15,-39.51,-38.30,-43.22
2022/02/23 00:10:45+0000,-43.67,-30.09,-31.71,-34.15,-39.44,-42.67
2022/02/23 00:11:46+0000,-42.04,-24.92,-32.23,-31.65,-39.10,-43.57
2022/02/23 00:12:38+0000,-42.96,-25.10,-32.30,-35.01,-38.94,-42.70
2022/02/23 00:13:30+0000,-42.90,-29.50,-30.44,-35.08,-39.27,-43.14
2022/02/23 00:14:22+0000,-42.76,-31.00,-31.46,-32.17,-36.59,-43.27
2022/02/23 00:15:14+0000,-42.30,-29.46,-30.84,-36.37,-37.85,-43.13
2022/02/23 00:16:06+0000,-42.94,-30.75,-26.23,-37.21,-40.56,-43.59
2022/02/23 00:16:58+0000,-42.67,-30.41,-31.88,-34.45,-37.20,-42.30
2022/02/23 00:17:50+0000,-43.10,-30.96,-31.94,-37.22,-40.54,-43.73
2022/02/23 00:18:42+0000,-42.47,-29.52,-33.40,-36.58,-39.22,-43.21
2022/02/23 00:19:34+0000,-43.09,-32.19,-31.36,-34.36,-42.26,-43.71
2022/02/23 00:20:27+0000,-42.43,-30.25,-33.85,-30.18,-38.59,-44.09
2022/02/23 00:21:28+0000,-42.55,-29.41,-32.38,-31.16,-37.05,-43.63
2022/02/23 00:22:20+0000,-43.74,-30.84,-31.52,-33.08,-40.22,-42.76
2022/02/23 00:23:12+0000,-43.77,-29.15,-32.77,-32.05,-39.82,-43.73
2022/02/23 00:24:04+0000,-42.93,-27.96,-30.92,-45.95,-37.96,-43.17
2022/02/23 00:24:56+0000,-43.28,-24.47,-31.63,-35.78,-41.66,-43.09
2022/02/23 00:25:48+0000,-44.03,-27.50,-33.18,-46.24,-38.36,-43.18
2022/02/23 00:26:40+0000,-44.46,-27.84,-28.72,-30.52,-48.08,-43.21
2022/02/23 00:27:32+0000,-43.10,-27.90,-28.68,-45.81,-39.37,-44.33
2022/02/23 00:28:24+0000,-42.87,-27.04,-31.26,-36.12,-48.54,-43.65
2022/02/23 00:29:16+0000,-43.05,-26.80,-31.74,-44.49,-42.07,-44.01
2022/02/23 00:30:10+0000,-43.28,-28.52,-29.70,-36.83,-47.52,-42.24
2022/02/23 00:31:11+0000,-42.79,-28.83,-32.09,-38.60,-47.05,-44.12
2022/02/23 00:32:03+0000,-43.12,-26.61,-26.67,-45.86,-41.04,-44.13
2022/02/23 00:32:55+0000,-42.56,-26.41,-30.87,-34.91,-48.44,-42.90
2022/02/23 00:33:47+0000,-43.11,-26.73,-29.13,-35.98,-39.09,-42.61
2022/02/23 00:34:39+0000,-42.81,-25.47,-30.32,-35.26,-48.43,-42.96
2022/02/23 00:35:31+0000,-42.85,-27.08,-24.85,-33.31,-41.68,-43.37
2022/02/23 00:36:23+0000,-42.82,-26.71,-28.61,-34.48,-36.04,-43.32
2022/02/23 00:37:15+0000,-43.56,-22.22,-28.31,-33.81,-38.70,-44.23
2022/02/23 00:38:07+0000,-44.33,-22.98,-30.26,-33.44,-40.95,-42.67
2022/02/23 00:38:59+0000,-43.32,-23.91,-29.72,-35.28,-42.66,-42.67
2022/02/23 00:39:52+0000,-43.57,-24.46,-30.21,-36.55,-34.52,-42.88
2022/02/23 00:40:44+0000,-43.94,-26.42,-27.63,-35.64,-37.87,-41.43
2022/02/23 00:41:45+0000,-43.84,-25.49,-29.60,-34.68,-38.96,-42.84
2022/02/23 00:42:37+0000,-42.73,-27.17,-30.73,-35.25,-44.83,-43.03
2022/02/23 00:43:29+0000,-42.92,-27.62,-31.11,-36.57,-36.01,-43.28
2022/02/23 00:44:21+0000,-42.07,-27.98,-29.30,-36.45,-42.06,-43.04
2022/02/23 00:45:13+0000,-43.11,-26.23,-31.61,-37.44,-43.34,-42.66
2022/02/23 00:46:05+0000,-42.78,-29.23,-30.49,-32.79,-42.34,-44.12
2022/02/23 00:46:57+0000,-42.35,-27.69,-33.14,-34.49,-44.51,-43.23
2022/02/23 00:47:49+0000,-42.88,-26.41,-27.42,-42.06,-44.31,-42.38
2022/02/23 00:48:41+0000,-42.86,-26.42,-33.47,-32.80,-41.42,-43.48
2022/02/23 00:49:33+0000,-43.82,-27.92,-31.21,-38.88,-43.73,-43.34
2022/02/23 00:50:27+0000,-42.17,-26.18,-33.00,-35.37,-46.56,-43.65
2022/02/23 00:51:27+0000,-42.47,-24.31,-32.72,-33.00,-44.84,-42.40
2022/02/23 00:52:19+0000,-43.40,-28.83,-29.81,-41.09,-41.94,-43.12
2022/02/23 00:53:11+0000,-44.11,-28.24,-33.38,-37.79,-41.42,-41.70
2022/02/23 00:54:03+0000,-43.37,-24.34,-23.18,-43.53,-43.81,-42.09
2022/02/23 00:54:55+0000,-44.51,-27.20,-31.13,-35.52,-48.65,-42.20
2022/02/23 00:55:47+0000,-43.48,-21.90,-28.59,-44.52,-39.09,-43.23
2022/02/23 00:56:39+0000,-44.54,-22.61,-31.78,-36.83,-47.64,-42.23
2022/02/23 00:57:31+0000,-43.20,-26.50,-27.38,-38.59,-45.87,-43.59
2022/02/23 00:58:24+0000,-42.71,-26.03,-31.17,-36.29,-47.26,-43.68
2022/02/23 00:59:16+0000,-42.93,-24.27,-31.09,-39.08,-40.04,-42.28
2022/02/23 01:00:09+0000,-41.82,-26.85,-31.17,-35.62,-48.44,-44.13
2022/02/23 01:01:07+0000,-43.11,-26.54,-29.20,-35.92,-44.92,-44.19
2022/02/23 01:02:00+0000,-43.43,-22.43,-30.48,-33.10,-44.62,-42.75
2022/02/23 01:02:52+0000,-43.90,-21.72,-31.17,-32.58,-42.87,-43.98
2022/02/23 01:03:44+0000,-43.66,-24.37,-29.59,-37.95,-39.57,-44.12
2022/02/23 01:04:36+0000,-43.00,-28.16,-31.93,-30.76,-45.59,-42.81
2022/02/23 01:05:28+0000,-42.91,-22.76,-32.18,-41.30,-46.12,-44.43
2022/02/23 01:06:20+0000,-43.05,-30.18,-28.73,-41.00,-38.61,-43.44
2022/02/23 01:07:12+0000,-43.12,-23.37,-32.69,-36.68,-39.43,-42.64
2022/02/23 01:08:04+0000,-43.12,-22.11,-32.25,-39.55,-45.09,-44.60
2022/02/23 01:08:56+0000,-43.16,-22.59,-33.21,-34.92,-44.70,-43.97
2022/02/23 01:09:50+0000,-43.21,-30.69,-30.92,-38.17,-43.66,-43.06
2022/02/23 01:10:42+0000,-43.96,-21.30,-33.76,-32.78,-44.74,-43.64
2022/02/23 01:11:42+0000,-43.68,-25.78,-33.86,-33.98,-46.07,-43.39
2022/02/23 01:12:34+0000,-43.66,-28.32,-31.34,-33.90,-46.09,-42.83
2022/02/23 01:13:26+0000,-41.87,-19.34,-32.68,-38.83,-45.92,-43.49
2022/02/23 01:14:18+0000,-43.28,-25.08,-31.06,-45.44,-44.77,-43.44
2022/02/23 01:15:11+0000,-42.38,-19.57,-27.48,-35.15,-44.13,-43.32
2022/02/23 01:16:03+0000,-42.97,-20.25,-26.66,-46.59,-43.10,-44.34
2022/02/23 01:16:55+0000,-43.81,-24.05,-31.95,-35.73,-48.57,-43.54
2022/02/23 01:17:47+0000,-43.34,-24.66,-31.41,-40.99,-45.32,-44.51
2022/02/23 01:18:39+0000,-42.66,-24.34,-31.05,-38.76,-47.98,-43.24
2022/02/23 01:19:31+0000,-43.47,-20.58,-30.47,-46.07,-45.79,-42.25
2022/02/23 01:20:24+0000,-43.94,-23.00,-29.92,-40.44,-48.97,-43.26
2022/02/23 01:21:25+0000,-43.64,-23.72,-28.05,-36.35,-49.53,-42.89
2022/02/23 01:22:17+0000,-43.13,-21.91,-30.75,-46.17,-44.31,-43.90
2022/02/23 01:23:09+0000,-43.84,-23.44,-31.08,-37.05,-48.11,-43.52
2022/02/23 01:24:01+0000,-43.74,-23.54,-30.64,-37.82,-45.89,-43.46
2022/02/23 01:24:53+0000,-42.97,-26.17,-29.72,-41.03,-47.08,-43.41
2022/02/23 01:25:45+0000,-43.63,-22.30,-31.16,-37.30,-42.87,-42.77
2022/02/23 01:26:37+0000,-43.07,-21.17,-32.73,-40.57,-46.51,-43.09
2022/02/23 01:27:29+0000,-43.53,-22.77,-31.46,-34.13,-44.98,-43.22
2022/02/23 01:28:21+0000,-43.39,-28.49,-30.28,-38.91,-15.49,-43.09
2022/02/23 01:29:13+0000,-43.39,-21.36,-30.72,-28.39,-44.74,-44.54
2022/02/23 01:30:07+0000,-43.03,-19.77,-30.02,-31.57,-45.32,-43.47
2022/02/23 01:31:06+0000,-43.04,-28.69,-31.44,-33.95,-44.83,-43.33
2022/02/23 01:31:59+0000,-43.30,-19.76,-32.83,-40.17,-46.17,-43.47
2022/02/23 01:32:51+0000,-43.06,-29.70,-28.70,-41.15,-42.69,-44.18
2022/02/23 01:33:43+0000,-43.02,-23.67,-33.01,-35.84,-42.56,-43.50
2022/02/23 01:34:35+0000,-42.76,-29.27,-32.07,-38.66,-46.72,-43.57
2022/02/23 01:35:27+0000,-42.54,-17.32,-33.25,-40.19,-47.90,-42.58
2022/02/23 01:36:19+0000,-43.40,-22.36,-31.17,-45.35,-45.08,-43.64
2022/02/23 01:37:11+0000,-44.07,-22.09,-33.52,-41.56,-45.29,-42.25
2022/02/23 01:38:03+0000,-43.93,-18.12,-30.94,-45.60,-46.04,-43.54
2022/02/23 01:38:55+0000,-43.75,-17.65,-30.15,-39.23,-46.52,-41.03
2022/02/23 01:39:48+0000,-43.35,-20.64,-27.80,-44.70,-44.09,-42.72
2022/02/23 01:40:41+0000,-43.91,-19.26,-31.80,-38.48,-45.04,-42.69
2022/02/23 01:41:41+0000,-43.52,-17.67,-33.56,-40.91,-43.70,-42.49
2022/02/23 01:42:33+0000,-43.31,-17.66,-31.30,-44.79,-46.43,-43.24
2022/02/23 01:43:25+0000,-43.37,-17.58,-28.72,-42.85,-47.61,-43.25
2022/02/23 01:44:17+0000,-42.53,-23.90,-28.64,-44.54,-43.83,-43.78
2022/02/23 01:45:09+0000,-43.05,-24.38,-31.22,-39.44,-47.05,-43.03
2022/02/23 01:46:01+0000,-42.13,-20.19,-32.46,-41.86,-46.21,-43.37
2022/02/23 01:46:53+0000,-42.77,-21.84,-30.72,-43.03,-46.23,-43.23
2022/02/23 01:47:45+0000,-43.14,-20.02,-29.86,-42.79,-44.47,-43.61
2022/02/23 01:48:38+0000,-42.48,-20.83,-31.75,-43.40,-47.17,-41.75
2022/02/23 01:49:30+0000,-43.57,-22.50,-29.60,-41.68,-46.57,-44.03
2022/02/23 01:50:23+0000,-42.52,-23.56,-28.95,-42.49,-44.83,-43.24
2022/02/23 01:51:24+0000,-43.08,-22.20,-29.51,-43.71,-47.99,-42.31
2022/02/23 01:52:16+0000,-42.46,-23.79,-28.40,-43.90,-45.61,-43.10
2022/02/23 01:53:08+0000,-42.80,-20.92,-30.78,-43.33,-46.23,-41.53
2022/02/23 01:54:00+0000,-44.37,-21.42,-30.58,-44.14,-46.21,-43.11
2022/02/23 01:54:52+0000,-43.72,-22.59,-30.75,-43.60,-45.56,-42.31
2022/02/23 01:55:44+0000,-43.76,-23.54,-27.40,-44.62,-46.93,-43.17
2022/02/23 01:56:36+0000,-42.56,-26.89,-32.12,-43.25,-46.31,-42.39
2022/02/23 01:57:28+0000,-43.50,-23.60,-33.68,-36.93,-45.65,-43.14
2022/02/23 01:58:20+0000,-42.94,-30.07,-31.55,-42.05,-46.54,-43.87
2022/02/23 01:59:12+0000,-43.17,-22.50,-31.91,-42.23,-45.48,-43.95
2022/02/23 02:00:06+0000,-43.38,-29.79,-28.81,-42.90,-47.36,-44.57
2022/02/23 02:01:06+0000,-43.33,-29.39,-31.06,-41.71,-46.14,-43.66
2022/02/23 02:01:59+0000,-43.54,-21.63,-31.79,-41.18,-47.43,-43.61
2022/02/23 02:02:51+0000,-43.43,-29.45,-31.30,-44.78,-44.87,-44.10
2022/02/23 02:03:43+0000,-42.79,-25.52,-32.57,-43.51,-47.29,-43.67
2022/02/23 02:04:35+0000,-43.41,-29.11,-32.33,-44.17,-46.65,-43.84
2022/02/23 02:05:27+0000,-42.84,-23.33,-33.27,-43.14,-46.28,-43.58
2022/02/23 02:06:19+0000,-40.14,-24.83,-27.88,-45.49,-45.91,-42.52
2022/02/23 02:07:11+0000,-43.46,-22.42,-34.11,-41.77,-46.51,-43.46
2022/02/23 02:08:03+0000,-42.87,-22.63,-32.14,-45.38,-46.00,-42.89
2022/02/23 02:08:55+0000,-41.90,-20.93,-32.24,-42.26,-47.72,-43.68
2022/02/23 02:09:48+0000,-41.87,-21.67,-32.59,-45.82,-45.65,-42.28
2022/02/23 02:10:41+0000,-42.14,-24.20,-32.39,-43.03,-46.47,-42.90
2022/02/23 02:11:41+0000,-41.67,-23.90,-32.66,-45.46,-45.59,-43.27
2022/02/23 02:12:33+0000,-42.00,-24.59,-32.63,-45.50,-41.71,-43.46
2022/02/23 02:13:25+0000,-41.24,-24.49,-30.98,-43.87,-46.92,-42.31
2022/02/23 02:14:17+0000,-41.23,-23.62,-31.04,-46.38,-46.71,-42.94
2022/02/23 02:15:09+0000,-42.02,-18.00,-31.50,-40.58,-48.28,-42.41
2022/02/23 02:16:01+0000,-41.62,-22.51,-31.09,-43.50,-46.63,-44.15
2022/02/23 02:16:53+0000,-42.78,-23.36,-28.47,-43.12,-46.04,-43.08
2022/02/23 02:17:45+0000,-42.39,-24.68,-29.03,-40.11,-46.48,-43.67
2022/02/23 02:18:38+0000,-42.16,-23.37,-30.24,-41.88,-47.03,-42.93
2022/02/23 02:19:30+0000,-43.12,-26.12,-30.60,-43.05,-47.05,-42.89
2022/02/23 02:20:23+0000,-43.29,-24.64,-31.89,-44.17,-47.19,-42.90
2022/02/23 02:21:23+0000,-41.92,-23.76,-31.40,-42.71,-47.07,-43.77
2022/02/23 02:22:15+0000,-43.24,-23.31,-32.16,-40.81,-46.94,-41.70
2022/02/23 02:23:07+0000,-42.87,-20.73,-26.61,-39.82,-47.77,-42.91
2022/02/23 02:23:59+0000,-42.86,-24.56,-29.78,-39.98,-47.70,-42.88
2022/02/23 02:24:51+0000,-42.96,-28.18,-30.82,-41.92,-47.07,-43.50
2022/02/23 02:25:43+0000,-43.42,-19.96,-31.64,-41.36,-46.72,-43.18
2022/02/23 02:26:35+0000,-43.37,-29.60,-30.68,-42.63,-47.04,-42.28
2022/02/23 02:27:27+0000,-41.91,-25.25,-33.32,-41.44,-47.64,-42.27
2022/02/23 02:28:19+0000,-41.92,-22.94,-31.30,-44.87,-47.63,-42.74
2022/02/23 02:29:11+0000,-42.23,-19.96,-32.49,-42.30,-48.02,-42.99
2022/02/23 02:30:05+0000,-42.95,-29.37,-28.69,-43.62,-47.08,-43.00
2022/02/23 02:31:05+0000,-43.42,-29.09,-29.43,-42.44,-47.63,-42.30
2022/02/23 02:31:57+0000,-41.81,-24.79,-33.21,-43.78,-47.38,-42.70
2022/02/23 02:32:49+0000,-40.96,-21.15,-30.56,-46.08,-49.18,-43.22
2022/02/23 02:33:41+0000,-41.32,-22.03,-31.61,-41.57,-47.26,-42.95
2022/02/23 02:34:33+0000,-40.47,-23.27,-31.77,-46.64,-47.74,-42.70
2022/02/23 02:35:25+0000,-42.54,-26.33,-32.05,-44.49,-48.01,-42.32
2022/02/23 02:36:17+0000,-42.09,-22.24,-28.52,-44.31,-47.37,-42.52
2022/02/23 02:37:09+0000,-42.76,-21.00,-31.20,-40.81,-47.91,-43.95
2022/02/23 02:38:01+0000,-42.83,-22.82,-30.58,-41.94,-47.10,-42.86
2022/02/23 02:38:53+0000,-43.22,-20.89,-29.07,-41.19,-47.15,-42.66
2022/02/23 02:39:47+0000,-43.45,-20.97,-31.67,-43.93,-47.57,-42.03
2022/02/23 02:40:39+0000,-39.39,-22.67,-30.29,-39.73,-46.93,-41.54
2022/02/23 02:41:39+0000,-40.62,-25.00,-30.45,-37.57,-47.37,-42.27
2022/02/23 02:42:31+0000,-41.25,-24.05,-30.93,-36.11,-47.41,-43.20
2022/02/23 02:43:23+0000,-42.44,-20.97,-31.68,-43.41,-46.97,-42.84
2022/02/23 02:44:15+0000,-42.44,-22.89,-31.89,-44.34,-48.01,-41.44
2022/02/23 02:45:08+0000,-41.42,-22.36,-30.55,-44.67,-47.25,-42.52
2022/02/23 02:46:00+0000,-43.03,-22.69,-30.36,-41.81,-46.91,-41.87
2022/02/23 02:46:52+0000,-41.01,-25.80,-31.89,-41.87,-47.90,-43.36
2022/02/23 02:47:44+0000,-43.30,-24.13,-31.69,-42.26,-46.64,-42.59
2022/02/23 02:48:36+0000,-42.12,-31.28,-31.31,-43.15,-46.98,-42.42
2022/02/23 02:49:28+0000,-41.25,-25.07,-32.37,-35.24,-47.03,-42.89
2022/02/23 02:50:21+0000,-40.29,-29.94,-31.94,-40.14,-47.21,-43.40
2022/02/23 02:51:21+0000,-41.62,-29.86,-33.41,-35.10,-46.37,-41.63
2022/02/23 02:52:13+0000,-43.95,-24.32,-33.25,-44.42,-46.66,-43.20
2022/02/23 02:53:05+0000,-42.91,-30.44,-31.00,-43.57,-46.81,-43.05
2022/02/23 02:53:57+0000,-41.56,-25.89,-32.71,-39.25,-46.69,-42.28
2022/02/23 02:54:49+0000,-42.12,-26.56,-32.28,-46.15,-47.72,-42.48
2022/02/23 02:55:41+0000,-41.78,-23.64,-33.76,-44.38,-47.42,-41.14
2022/02/23 02:56:33+0000,-41.50,-24.30,-31.77,-46.11,-46.45,-42.00
2022/02/23 02:57:25+0000,-40.71,-25.30,-33.06,-42.38,-48.12,-41.91
2022/02/23 02:58:17+0000,-40.64,-23.27,-33.61,-45.52,-48.24,-42.19
2022/02/23 02:59:09+0000,-41.66,-22.28,-32.47,-44.62,-47.64,-42.14
2022/02/23 03:00:03+0000,-42.17,-25.55,-32.43,-45.30,-46.86,-41.66
2022/02/23 03:01:01+0000,-41.02,-25.39,-32.33,-46.01,-48.01,-41.83
2022/02/23 03:01:53+0000,-39.61,-24.23,-32.07,-46.16,-47.24,-41.35
2022/02/23 03:02:45+0000,-41.48,-23.20,-27.06,-43.00,-46.90,-41.46
2022/02/23 03:03:37+0000,-40.95,-25.25,-32.62,-45.38,-47.87,-42.84
2022/02/23 03:04:29+0000,-41.24,-24.12,-32.11,-42.60,-47.32,-41.63
2022/02/23 03:05:21+0000,-42.71,-30.37,-32.37,-45.06,-46.53,-42.81
2022/02/23 03:06:13+0000,-41.84,-24.14,-32.57,-43.16,-46.15,-41.43
2022/02/23 03:07:05+0000,-42.02,-28.96,-31.30,-43.76,-46.79,-41.14
2022/02/23 03:07:58+0000,-40.56,-23.65,-33.05,-45.27,-47.60,-40.79
2022/02/23 03:08:50+0000,-40.68,-27.14,-32.19,-45.64,-46.98,-40.83
2022/02/23 03:09:43+0000,-40.87,-22.70,-31.85,-41.99,-46.26,-41.15
2022/02/23 03:10:35+0000,-40.67,-29.58,-31.57,-44.70,-45.92,-40.50
2022/02/23 03:11:36+0000,-41.21,-30.10,-32.13,-45.17,-47.33,-38.84
2022/02/23 03:12:28+0000,-42.54,-25.07,-32.25,-44.54,-48.27,-42.03
2022/02/23 03:13:20+0000,-43.66,-30.67,-31.42,-45.15,-48.52,-40.84
2022/02/23 03:14:12+0000,-41.78,-24.25,-32.76,-43.48,-47.81,-40.03
2022/02/23 03:15:04+0000,-41.55,-29.81,-31.33,-46.30,-48.00,-41.96
2022/02/23 03:15:56+0000,-42.10,-22.77,-32.07,-45.38,-47.49,-41.70
2022/02/23 03:16:48+0000,-39.96,-24.71,-32.13,-45.62,-48.97,-42.06
2022/02/23 03:17:40+0000,-42.06,-26.03,-32.84,-44.27,-46.87,-41.44
2022/02/23 03:18:33+0000,-40.75,-20.83,-32.10,-45.05,-45.75,-41.99
2022/02/23 03:19:25+0000,-41.42,-24.30,-32.19,-44.04,-46.62,-41.27
2022/02/23 03:20:18+0000,-42.51,-25.53,-32.47,-45.88,-45.06,-41.26
2022/02/23 03:21:19+0000,-42.85,-25.53,-33.32,-44.83,-46.15,-41.13
2022/02/23 03:22:11+0000,-39.65,-24.23,-30.94,-44.34,-46.03,-42.25
2022/02/23 03:23:03+0000,-40.38,-25.93,-30.94,-44.57,-45.42,-41.59
2022/02/23 03:23:55+0000,-41.96,-24.18,-32.16,-43.79,-46.38,-41.22
2022/02/23 03:24:47+0000,-42.38,-25.11,-33.02,-43.93,-45.48,-41.49
2022/02/23 03:25:39+0000,-40.88,-25.58,-31.31,-43.73,-44.92,-40.71
2022/02/23 03:26:31+0000,-39.35,-22.39,-32.33,-43.84,-46.57,-41.15
2022/02/23 03:27:23+0000,-40.51,-26.96,-31.28,-43.57,-46.23,-40.71
2022/02/23 03:28:15+0000,-42.67,-24.67,-33.03,-43.35,-45.68,-40.44
2022/02/23 03:29:07+0000,-38.75,-25.39,-31.48,-44.43,-46.57,-47.71
2022/02/23 03:30:00+0000,-43.11,-25.20,-31.77,-44.33,-47.64,-48.43
2022/02/23 03:31:02+0000,-42.14,-23.89,-31.38,-42.85,-47.50,-47.53
2022/02/23 03:31:54+0000,-40.01,-24.78,-33.19,-44.16,-47.12,-47.64
2022/02/23 03:32:46+0000,-40.87,-25.23,-32.86,-44.69,-46.17,-48.06
2022/02/23 03:33:38+0000,-41.08,-22.97,-31.29,-45.03,-48.12,-47.24
2022/02/23 03:34:30+0000,-40.50,-25.48,-31.32,-43.59,-47.29,-46.27
2022/02/23 03:35:22+0000,-43.94,-24.10,-31.70,-44.01,-47.80,-46.73
2022/02/23 03:36:14+0000,-41.44,-24.22,-32.59,-45.49,-48.41,-46.03
2022/02/23 03:37:06+0000,-39.14,-28.76,-31.33,-44.86,-48.15,-45.85
2022/02/23 03:37:59+0000,-43.10,-24.74,-31.72,-43.97,-48.01,-47.40
2022/02/23 03:38:51+0000,-40.59,-29.14,-31.99,-44.03,-48.02,-45.13
2022/02/23 03:39:44+0000,-43.35,-24.91,-32.66,-45.76,-48.64,-46.37
2022/02/23 03:40:36+0000,-42.24,-29.04,-32.99,-45.21,-48.01,-47.73
2022/02/23 03:41:37+0000,-42.38,-25.50,-30.67,-45.36,-47.58,-47.91
2022/02/23 03:42:29+0000,-42.96,-21.20,-30.81,-44.47,-48.05,-47.10
2022/02/23 03:43:21+0000,-40.42,-30.38,-33.03,-44.51,-47.74,-47.56
2022/02/23 03:44:13+0000,-41.34,-25.75,-33.45,-44.92,-47.97,-47.92
2022/02/23 03:45:05+0000,-39.73,-30.50,-31.08,-44.79,-47.95,-48.31
2022/02/23 03:45:57+0000,-40.85,-25.96,-32.46,-45.80,-47.78,-47.83
2022/02/23 03:46:49+0000,-39.47,-22.50,-33.22,-45.58,-48.33,-47.84
2022/02/23 03:47:41+0000,-40.34,-27.19,-33.08,-38.76,-47.87,-48.51
2022/02/23 03:48:33+0000,-39.59,-25.12,-32.73,-46.50,-47.76,-48.18
2022/02/23 03:49:25+0000,-40.89,-24.32,-34.29,-45.14,-47.65,-46.33
2022/02/23 03:50:18+0000,-38.60,-26.68,-32.80,-46.01,-46.56,-45.82
2022/02/23 03:51:19+0000,-39.75,-26.89,-32.54,-46.87,-47.60,-46.60
2022/02/23 03:52:11+0000,-41.73,-27.65,-33.45,-45.79,-46.91,-46.40
2022/02/23 03:53:03+0000,-42.47,-24.11,-33.71,-47.29,-47.64,-46.29
2022/02/23 03:53:55+0000,-43.91,-22.66,-32.78,-45.26,-47.03,-46.33
2022/02/23 03:54:47+0000,-40.10,-27.43,-32.73,-45.74,-47.26,-46.54
2022/02/23 03:55:39+0000,-43.00,-27.39,-32.31,-46.47,-48.16,-47.09
2022/02/23 03:56:31+0000,-43.09,-21.99,-33.32,-42.34,-47.98,-47.81
2022/02/23 03:57:23+0000,-30.58,-25.00,-33.24,-45.20,-48.58,-47.04
2022/02/23 03:58:15+0000,-32.23,-27.45,-33.43,-45.73,-47.86,-48.07
2022/02/23 03:59:07+0000,-42.82,-26.86,-32.31,-44.87,-48.30,-47.32
2022/02/23 04:00:01+0000,-42.76,-22.60,-32.17,-41.01,-48.63,-47.63
2022/02/23 04:01:01+0000,-44.37,-22.48,-33.33,-44.74,-48.15,-47.07
2022/02/23 04:01:53+0000,-39.13,-22.43,-33.91,-45.93,-49.54,-47.70
2022/02/23 04:02:45+0000,-42.12,-21.74,-33.44,-46.07,-48.17,-47.97
2022/02/23 04:03:37+0000,-38.46,-26.12,-32.48,-45.14,-46.99,-46.39
2022/02/23 04:04:29+0000,-43.59,-23.27,-32.72,-46.44,-48.15,-47.32
2022/02/23 04:05:21+0000,-41.32,-28.72,-33.48,-46.15,-47.21,-46.71
2022/02/23 04:06:14+0000,-45.16,-26.13,-34.26,-47.05,-47.08,-46.30
2022/02/23 04:07:06+0000,-44.96,-29.33,-34.34,-46.63,-48.85,-47.21
2022/02/23 04:07:58+0000,-39.97,-26.34,-33.56,-46.14,-47.86,-47.00
2022/02/23 04:08:50+0000,-40.14,-29.63,-33.27,-46.12,-48.55,-45.98
2022/02/23 04:09:43+0000,-43.86,-23.75,-33.78,-46.01,-48.17,-48.68
2022/02/23 04:10:35+0000,-42.45,-28.63,-33.17,-45.38,-45.25,-48.23
2022/02/23 04:11:36+0000,-41.69,-29.09,-34.05,-44.58,-45.00,-47.95
2022/02/23 04:12:28+0000,-36.97,-23.26,-33.77,-45.91,-45.05,-47.99
2022/02/23 04:13:20+0000,-40.67,-28.16,-33.54,-45.80,-44.84,-47.79
2022/02/23 04:14:12+0000,-40.22,-27.64,-33.81,-45.01,-45.48,-47.94
2022/02/23 04:15:04+0000,-40.25,-25.64,-34.56,-46.87,-44.44,-47.62
2022/02/23 04:15:56+0000,-41.74,-25.83,-33.19,-46.36,-45.67,-48.80
2022/02/23 04:16:48+0000,-41.35,-26.21,-32.94,-46.79,-45.33,-48.19
2022/02/23 04:17:40+0000,-42.40,-26.97,-33.25,-45.29,-45.53,-46.54
2022/02/23 04:18:32+0000,-42.15,-23.46,-33.75,-46.13,-45.06,-46.69
2022/02/23 04:19:24+0000,-37.76,-22.22,-31.71,-45.35,-44.46,-46.12
2022/02/23 04:20:17+0000,-42.64,-26.85,-33.50,-45.94,-44.72,-46.92
2022/02/23 04:21:18+0000,-42.70,-24.56,-34.31,-45.67,-44.35,-46.87
2022/02/23 04:22:10+0000,-38.47,-23.98,-33.16,-43.34,-44.57,-46.10
2022/02/23 04:23:02+0000,-43.70,-24.94,-33.27,-45.58,-44.87,-46.05
2022/02/23 04:23:54+0000,-37.87,-25.40,-33.76,-46.82,-44.55,-47.89
2022/02/23 04:24:46+0000,-42.63,-26.20,-33.11,-44.76,-44.40,-47.85
2022/02/23 04:25:38+0000,-38.14,-26.92,-33.73,-44.28,-45.84,-47.23
2022/02/23 04:26:30+0000,-44.13,-25.44,-32.53,-45.53,-45.98,-47.64
2022/02/23 04:27:22+0000,-43.32,-25.94,-32.81,-45.37,-45.75,-48.68
2022/02/23 04:28:14+0000,-43.66,-25.41,-33.01,-45.06,-45.88,-47.25
2022/02/23 04:29:06+0000,-42.29,-28.89,-30.76,-45.75,-45.25,-47.47
2022/02/23 04:29:59+0000,-44.25,-26.76,-33.38,-45.38,-45.64,-47.48
2022/02/23 04:30:51+0000,-40.96,-28.71,-32.78,-44.78,-45.40,-47.13
2022/02/23 04:31:52+0000,-39.57,-25.51,-32.31,-45.89,-45.11,-46.21
2022/02/23 04:32:44+0000,-45.56,-27.23,-32.87,-44.34,-46.56,-46.70
2022/02/23 04:33:36+0000,-44.24,-28.50,-32.33,-46.73,-45.25,-45.74
2022/02/23 04:34:28+0000,-43.58,-26.02,-33.16,-46.23,-45.65,-46.00
2022/02/23 04:35:20+0000,-40.65,-28.90,-33.45,-45.90,-45.42,-46.18
2022/02/23 04:36:12+0000,-41.78,-29.29,-32.93,-45.71,-45.74,-46.08
2022/02/23 04:37:04+0000,-42.66,-29.01,-32.70,-46.52,-45.83,-46.95
2022/02/23 04:37:56+0000,-39.01,-27.10,-32.97,-45.91,-45.87,-47.10
2022/02/23 04:38:48+0000,-38.75,-26.73,-33.12,-47.05,-46.97,-47.25
2022/02/23 04:39:41+0000,-42.11,-27.08,-33.06,-46.45,-45.93,-47.60
2022/02/23 04:40:33+0000,-41.98,-26.74,-33.41,-46.75,-45.46,-47.84
2022/02/23 04:41:34+0000,-41.88,-27.20,-33.55,-46.83,-45.92,-47.66
2022/02/23 04:42:26+0000,-40.40,-26.96,-33.84,-46.36,-45.91,-47.35
2022/02/23 04:43:18+0000,-40.38,-27.03,-31.10,-46.18,-45.94,-47.72